GSAT0103 (GALILEO-FM3)

Last updated on Oct. 15, 2019, 4:14 a.m. UTC

1 38857U 12055A   19285.86950605  .00000026  00000-0  00000-0 0  9996
2 38857  54.9414 168.6280 0001983 269.0158  91.0604  1.70473986 43577
UTC
Height (km)
Latitude
Longitude
Inclination
Orbital Period
UTC large
Height (km)
Speed (km/s)
/
Latitude / Longitude
Inclination (degrees)
Orbital Period (minutes)
Azimuth
Elevation
Range (km)
Doppler Factor
iOS Compass Heading
iOS Angle

Next 30 passes for location: Hong Kong

Rise time Rise Azimuth (degrees) Set time Set Azimuth (degrees) Duration Max altitude (degrees)

No matching passes for this satellites